This is the latest recevied weather packets stored in our database for station/object WA1OUI. If no packets are shown the sender has not sent any weather packets the latest 10 day(s).
| Time | Temp. | Humidity | Pressure | Rain* | Wind** | Luminosity | Snow |
|---|---|---|---|---|---|---|---|
| 1777556272 | 8.89° C | 98% | 1005.6 hPa | 0 mm | - | 28 W/m² | - |
| 1777555968 | 8.89° C | 98% | 1005.6 hPa | 0 mm | - | 39 W/m² | - |
| 1777555663 | 9.44° C | 98% | 1005.6 hPa | 0 mm | - | 31 W/m² | - |
| 1777555360 | 8.89° C | 98% | 1005.4 hPa | 0 mm | - | 44 W/m² | - |
| 1777555056 | 8.89° C | 98% | 1005.4 hPa | 0 mm | - | 45 W/m² | - |
| 1777554754 | 8.89° C | 98% | 1005.7 hPa | 0 mm | - | 25 W/m² | - |
| 1777554451 | 8.89° C | 98% | 1005.7 hPa | 0 mm | - | 35 W/m² | - |
| 1777554147 | 8.89° C | 98% | 1005.7 hPa | 0 mm | - | 31 W/m² | - |
| 1777553845 | 8.89° C | 98% | 1005.6 hPa | 0.51 mm | - | 32 W/m² | - |
| 1777553541 | 8.89° C | 98% | 1005.7 hPa | 0.51 mm | - | 29 W/m² | - |
| 1777553236 | 8.89° C | 98% | 1005.8 hPa | 0 mm | - | 30 W/m² | - |
| 1777552933 | 8.89° C | 98% | 1005.7 hPa | 0.51 mm | - | 27 W/m² | - |
| 1777552627 | 8.89° C | 98% | 1005.8 hPa | 0.51 mm | - | 35 W/m² | - |
| 1777552324 | 8.89° C | 98% | 1005.8 hPa | 0 mm | - | 36 W/m² | - |
| 1777552020 | 8.89° C | 98% | 1006.1 hPa | 0 mm | - | 31 W/m² | - |
| 1777551718 | 8.89° C | 98% | 1005.7 hPa | 0 mm | - | 27 W/m² | - |
| 1777551415 | 8.89° C | 98% | 1006 hPa | 0 mm | - | 32 W/m² | - |
| 1777551111 | 8.89° C | 98% | 1005.9 hPa | 0 mm | - | 29 W/m² | - |
| 1777550809 | 8.89° C | 98% | 1006.1 hPa | 0 mm | - | 20 W/m² | - |
| 1777550505 | 8.89° C | 98% | 1006.1 hPa | 0 mm | - | 27 W/m² | - |
| 1777550201 | 8.89° C | 98% | 1006.1 hPa | 0 mm | - | 37 W/m² | - |
| 1777549898 | 8.89° C | 98% | 1006.1 hPa | 0 mm | - | 33 W/m² | - |
| 1777549594 | 8.89° C | 98% | 1006.1 hPa | 0 mm | - | 30 W/m² | - |
| 1777549290 | 8.89° C | 98% | 1006.3 hPa | 0 mm | - | 31 W/m² | - |
| 1777548987 | 8.89° C | 98% | 1006.3 hPa | 0 mm | - | 24 W/m² | - |
* Rain latest hour (hover to see other rain measurements)
** Current wind speed in m/s (hover to see current wind gust speed)